Regional Weather Roundup
Issued by NWS

Home | Current Version | Previous Version | Graphics & Text | Print | Product List | Glossary On
Versions: 1 2 3 4 5 6 7 8 9 10 11 12 13 14 15 16 17 18 19 20 21 22 23 24 25 26 27 28 29 30 31 32 33 34 35 36 37 38 39 40 41 42 43 44 45 46 47 48 49 50
000
ASUS45 KBOI 161710
RWRID
WEATHER ROUNDUP FOR IDAHO
NATIONAL WEATHER SERVICE BOISE ID
1100 AM MDT TUE SEP 16 2014

NOTE: "FAIR" INDICATES FEW OR NO CLOUDS BELOW 12000 FEET
WITH NO SIGNIFICANT WEATHER AND/OR OBSTRUCTIONS TO VISIBILITY

IDZ012-014-161800-
SOUTHWEST IDAHO


CITY           SKY/WX    TMP DP  RH WIND       PRES   REMARKS
BOISE          MOSUNNY   75  53  46 NE10      29.97F
CALDWELL       MOSUNNY   73  52  46 CALM      29.98F
MOUNTAIN HOME  PTSUNNY   80  38  22 E10       29.99F
$$

IDZ016-017-161800-
SOUTHCENTRAL IDAHO


CITY           SKY/WX    TMP DP  RH WIND       PRES   REMARKS
BURLEY         MOSUNNY   72  48  42 NE3       30.06S
JEROME         MOSUNNY   73  42  32 NE7       30.07F
TWIN FALLS     MOSUNNY   72  49  44 N9        30.06F
$$

IDZ019>023-161800-
SOUTHEAST IDAHO


CITY           SKY/WX    TMP DP  RH WIND       PRES   REMARKS
IDAHO FALLS    PTSUNNY   71  39  31 W5        30.15R
POCATELLO      PTSUNNY   65  43  44 E8        30.13F
REXBURG        PTSUNNY   64  43  46 SW3       30.15R
$$

IDZ006-010-011-018-031-032-161800-
CENTRAL IDAHO MOUNTAINS


CITY           SKY/WX    TMP DP  RH WIND       PRES   REMARKS
MCCALL         MOSUNNY   64  43  46 SW5       30.11S
HAILEY         MOSUNNY   75  46  35 W8        30.14F
STANLEY          N/A     60  43  53 VRB3      30.25F
SALMON         CLOUDY    55  37  50 N3        30.14R
CHALLIS        CLOUDY    61  39  44 N5        30.17F
$$

IDZ002-004-006-007-026-161800-
NORTHERN IDAHO


CITY           SKY/WX    TMP DP  RH WIND       PRES   REMARKS
LEWISTON       MOSUNNY   68  41  37 VRB3      29.88S
LOWELL           N/A     57  46  66 N6        29.99F
COEUR D`ALENE  MOSUNNY   63  43  48 NE13G20   29.92F
MULLAN PASS    CLOUDY    63  34  33 S7        30.10S
$$


USA.gov is the U.S. government's official web portal to all federal, state and local government web resources and services.